User: anonymous   Login
Location: ???????
(54.9996°N, 37.9529°E)
Time: 14:21:32
(UTC+00:00)
Language:

Okean 1 - Orbit

View from above orbital plane
View from above orbital plane
View from above satellite
View from above satellite

Ground track
Ground track

The orbit data is extracted from the following two-line orbital elements,

1 19274U 88056A   24176.13096405  .00006272  00000-0  32158-3 0  9997
2 19274  82.4754 169.1551 0017113 193.1377 166.9412 15.16254393961292
Epoch (UTC): 24 June 2024 03:08:35
Eccentricity: 0.0017113
inclination: 82.4754°
perigee height: 505 km
apogee height: 529 km
right ascension of ascending node: 169.1551°
argument of perigee: 193.1377°
revolutions per day: 15.16254393
mean anomaly at epoch: 166.9412°
orbit number at epoch: 96129

The dashed part of the orbit path shows where the satellite is in the earth's shadow,  

DLR